FW8345 Weather Reports


Display with metric or nautical units.
time (UTC)temp
F
wind
direction
speed
MPH
gust
MPH
rain 1hr
in
rain 24hr
in
rain mn
in
humidity
%
barometer
mb
20260502161037 62 0 1.0 3.0 0.00 0.00 0.00 66 1014.0
20260502160537 62 0 0.0 3.0 0.00 0.00 0.00 65 1014.1
20260502152040 62 0 1.0 5.0 0.00 0.00 0.00 65 1014.8
20260502151600 62 139 0.0 4.0 0.00 0.00 0.00 63 1014.7
20260502151037 62 0 1.0 4.0 0.00 0.00 0.00 63 1014.9
20260502150621 62 0 0.0 5.0 0.00 0.00 0.00 64 1015.1
20260502130539 65 0 1.0 8.0 0.00 0.00 0.00 58 1016.5
20260502123535 65 215 1.0 9.0 0.00 0.00 0.00 56 1016.6
20260502123047 65 302 3.0 9.0 0.00 0.00 0.00 59 1016.7
20260502122536 65 202 1.0 9.0 0.00 0.00 0.00 59 1016.7
20260502122036 65 159 2.0 10.0 0.00 0.00 0.00 59 1016.7
20260502121601 64 0 3.0 11.0 0.00 0.00 0.00 59 1016.9
20260502121042 64 186 7.0 11.0 0.00 0.00 0.00 61 1016.9
20260502120537 65 162 3.0 9.0 0.00 0.00 0.00 59 1017.1
20260502115541 64 160 0.0 8.0 0.00 0.00 0.00 59 1017.2
20260502115038 64 123 3.0 9.0 0.00 0.00 0.00 60 1017.2
20260502114553 65 157 4.0 9.0 0.00 0.00 0.00 59 1017.2
20260502114037 66 165 1.0 11.0 0.00 0.00 0.00 55 1017.2
20260502113538 67 305 2.0 11.0 0.00 0.00 0.00 55 1017.3
20260502113055 66 0 1.0 7.0 0.00 0.00 0.00 58 1017.3
20260502112537 66 179 2.0 8.0 0.00 0.00 0.00 59 1017.4
20260502112037 67 217 2.0 9.0 0.00 0.00 0.00 59 1017.5
20260502111558 67 190 1.0 9.0 0.00 0.00 0.00 59 1017.6
20260502111039 67 0 3.0 8.0 0.00 0.00 0.00 56 1017.7
20260502110538 67 269 1.0 11.0 0.00 0.00 0.00 57 1017.8
20260502110051 66 179 3.0 11.0 0.00 0.00 0.00 57 1017.9
20260502105540 66 0 3.0 13.0 0.00 0.00 0.00 59 1017.9
20260502105036 66 223 3.0 13.0 0.00 0.00 0.00 60 1018.0
20260502104547 66 336 3.0 10.0 0.00 0.00 0.00 62 1018.0
20260502104039 64 288 1.0 9.0 0.00 0.00 0.00 61 1018.1
20260502103538 65 0 3.0 9.0 0.00 0.00 0.00 62 1018.0
20260502103053 65 0 2.0 10.0 0.00 0.00 0.00 62 1017.9
20260502102538 64 121 3.0 10.0 0.00 0.00 0.00 61 1018.0
20260502102038 61 300 1.0 10.0 0.00 0.00 0.00 67 1017.8
20260502101616 62 288 2.0 10.0 0.00 0.00 0.00 63 1018.0
20260502101037 64 113 0.0 10.0 0.00 0.00 0.00 64 1018.0
20260502100537 65 304 2.0 9.0 0.00 0.00 0.00 59 1018.1
20260502091037 64 171 4.0 10.0 0.00 0.00 0.00 66 1018.7
20260502090537 63 257 1.0 6.0 0.00 0.00 0.00 64 1018.9
20260502080103 59 178 0.0 5.0 0.00 0.00 0.00 72 1018.9
20260502071038 52 231 1.0 7.0 0.00 0.00 0.00 88 1018.9
20260502070538 51 0 1.0 7.0 0.00 0.00 0.00 88 1018.9
20260502070050 51 263 2.0 7.0 0.00 0.00 0.00 88 1019.0
20260502065538 51 298 1.0 6.0 0.00 0.00 0.00 89 1018.9
20260502065038 51 267 1.0 6.0 0.00 0.00 0.00 90 1019.0
20260502064559 50 264 1.0 6.0 0.00 0.00 0.00 91 1018.9
20260502064038 50 0 0.0 4.0 0.00 0.00 0.00 91 1019.1
20260502063537 49 0 0.0 4.0 0.00 0.00 0.00 91 1019.0
20260502063054 49 0 1.0 3.0 0.00 0.00 0.00 91 1018.9
20260502062537 49 0 1.0 4.0 0.00 0.00 0.00 91 1018.9
20260502062038 49 262 0.0 4.0 0.00 0.00 0.00 91 1018.9
20260502061551 48 0 1.0 4.0 0.00 0.00 0.00 91 1018.8
20260502061038 48 0 1.0 3.0 0.00 0.00 0.00 92 1018.9
20260502060537 48 0 0.0 3.0 0.00 0.00 0.00 92 1018.7
20260502060107 48 283 0.0 3.0 0.00 0.00 0.00 91 1018.6
20260502055537 48 0 0.0 3.0 0.00 0.00 0.00 92 1018.7
20260502055038 48 0 0.0 3.0 0.00 0.00 0.00 92 1018.7
20260502054553 47 0 0.0 4.0 0.00 0.00 0.00 92 1018.8
20260502054037 47 288 1.0 4.0 0.00 0.00 0.00 92 1018.7
20260502053537 47 0 1.0 4.0 0.00 0.00 0.00 92 1018.6
20260502053059 47 273 0.0 5.0 0.00 0.00 0.00 92 1018.7
20260502052537 47 267 0.0 6.0 0.00 0.00 0.00 92 1018.6
20260502052038 46 265 1.0 6.0 0.00 0.00 0.00 92 1018.7
20260502051558 46 0 0.0 4.0 0.00 0.00 0.00 91 1018.6
20260502051037 46 0 1.0 6.0 0.00 0.00 0.00 91 1018.6
20260502050540 46 285 1.0 6.0 0.00 0.00 0.00 91 1018.6
20260502050054 46 244 1.0 6.0 0.00 0.00 0.00 91 1018.6
20260502045539 45 269 2.0 6.0 0.00 0.00 0.00 91 1018.7
20260502045037 45 267 2.0 6.0 0.00 0.00 0.00 91 1018.8
20260502044549 45 286 1.0 4.0 0.00 0.00 0.00 91 1018.6
20260502044039 45 270 1.0 4.0 0.00 0.00 0.00 91 1018.6
20260502043537 45 289 1.0 4.0 0.00 0.00 0.00 90 1018.6
20260502043050 45 246 1.0 3.0 0.00 0.00 0.00 90 1018.7
20260502042542 45 0 0.0 3.0 0.00 0.00 0.00 90 1018.6
20260502042038 45 277 1.0 3.0 0.00 0.00 0.00 90 1018.7
20260502041543 45 268 1.0 4.0 0.00 0.00 0.00 90 1018.7
20260502041037 45 0 0.0 4.0 0.00 0.00 0.00 90 1018.8
20260502040537 46 337 1.0 4.0 0.00 0.00 0.00 90 1018.9
20260502040048 45 279 0.0 3.0 0.00 0.00 0.00 90 1018.9
20260502035537 46 275 1.0 3.0 0.00 0.00 0.00 89 1018.9
20260502035037 46 288 0.0 3.0 0.00 0.00 0.00 89 1018.9
20260502034551 46 289 1.0 3.0 0.00 0.00 0.00 89 1019.0
20260502034037 46 275 1.0 3.0 0.00 0.00 0.00 89 1019.0
20260502033536 46 288 1.0 3.0 0.00 0.00 0.00 89 1018.9
20260502033053 46 0 0.0 2.0 0.00 0.00 0.00 89 1019.0
20260502032536 46 0 0.0 2.0 0.00 0.00 0.00 89 1019.0
20260502032038 46 279 0.0 2.0 0.00 0.00 0.00 88 1019.0
20260502031548 46 279 0.0 2.0 0.00 0.00 0.00 88 1019.0
20260502031037 47 0 1.0 2.0 0.00 0.00 0.00 88 1019.1
20260502030537 47 0 0.0 2.0 0.00 0.00 0.00 88 1019.1
20260502030054 47 0 0.0 2.0 0.00 0.00 0.00 88 1019.1
20260502025537 47 0 0.0 2.0 0.00 0.00 0.00 87 1019.1
20260502025037 47 275 0.0 2.0 0.00 0.00 0.00 88 1019.0
20260502024547 47 273 0.0 2.0 0.00 0.00 0.00 87 1018.9
20260502024037 47 271 0.0 2.0 0.00 0.00 0.00 87 1019.0
20260502023537 47 0 0.0 2.0 0.00 0.00 0.00 87 1019.0
20260502023051 47 271 0.0 3.0 0.00 0.00 0.00 87 1019.1
20260502022539 48 0 0.0 3.0 0.00 0.00 0.00 86 1019.2
20260502022038 48 267 1.0 5.0 0.00 0.00 0.00 86 1019.3
20260502021552 48 273 1.0 6.0 0.00 0.00 0.00 86 1019.3
20260502021037 48 274 2.0 6.0 0.00 0.00 0.00 85 1019.3
20260502020539 48 268 1.0 6.0 0.00 0.00 0.00 85 1019.3
20260502020047 49 291 1.0 6.0 0.00 0.00 0.00 85 1019.4
20260502015538 49 248 0.0 9.0 0.00 0.00 0.00 85 1019.4
20260502015037 49 261 3.0 9.0 0.00 0.00 0.00 85 1019.4
20260502014555 49 306 4.0 9.0 0.00 0.00 0.00 85 1019.4
20260502014037 49 287 3.0 9.0 0.00 0.00 0.00 85 1019.5
20260502013537 49 281 3.0 9.0 0.00 0.00 0.00 85 1019.6
20260502013055 49 294 3.0 9.0 0.00 0.00 0.00 85 1019.6
20260502012537 49 296 4.0 9.0 0.00 0.00 0.00 85 1019.7
20260502012037 50 284 4.0 10.0 0.00 0.00 0.00 85 1019.7
20260502011605 50 250 4.0 10.0 0.00 0.00 0.00 85 1019.7
20260502011036 50 284 4.0 10.0 0.00 0.00 0.00 85 1019.8
20260502010536 50 312 4.0 9.0 0.00 0.00 0.00 85 1019.9
20260502010048 50 261 3.0 9.0 0.00 0.00 0.00 85 1019.9
20260502005536 50 263 3.0 9.0 0.00 0.00 0.00 85 1020.0
20260502005036 50 288 4.0 9.0 0.00 0.00 0.00 85 1020.0
20260502004558 50 176 4.0 10.0 0.00 0.00 0.00 85 1020.0
20260502004037 50 271 2.0 10.0 0.00 0.00 0.00 85 1020.0
20260502003537 50 296 4.0 9.0 0.00 0.00 0.00 85 1019.9
20260502003047 50 281 3.0 8.0 0.00 0.00 0.00 86 1020.1
20260502002537 50 309 4.0 9.0 0.00 0.00 0.00 85 1020.2
20260502002039 50 323 3.0 10.0 0.00 0.00 0.00 85 1020.2
20260502001550 50 267 4.0 10.0 0.00 0.00 0.00 85 1020.2
20260502001036 50 261 3.0 9.0 0.00 0.00 0.00 85 1020.1
20260502000536 50 288 2.0 9.0 0.00 0.00 0.00 85 1020.2
20260502000100 50 290 3.0 9.0 0.00 0.00 0.00 85 1020.2
20260501235536 50 269 4.0 9.0 0.00 0.00 0.00 85 1020.1
20260501235039 51 0 2.0 10.0 0.00 0.00 0.00 84 1020.3
20260501234551 51 259 3.0 10.0 0.00 0.00 0.00 84 1020.3
20260501234037 51 275 2.0 8.0 0.00 0.00 0.00 84 1020.3
20260501233536 51 225 2.0 7.0 0.00 0.00 0.00 84 1020.3
20260501233048 51 265 2.0 7.0 0.00 0.00 0.00 83 1020.3
20260501232536 51 245 1.0 6.0 0.00 0.00 0.00 83 1020.4
20260501232036 52 265 2.0 8.0 0.00 0.00 0.00 83 1020.3
20260501231552 52 247 2.0 8.0 0.00 0.00 0.00 83 1020.3
20260501231037 52 200 2.0 10.0 0.00 0.00 0.00 82 1020.3
20260501230537 52 246 3.0 10.0 0.00 0.00 0.00 82 1020.3
20260501230046 53 300 3.0 10.0 0.00 0.00 0.00 82 1020.3
20260501225540 53 273 2.0 10.0 0.00 0.00 0.00 82 1020.4
20260501225037 53 337 5.0 10.0 0.00 0.00 0.00 82 1020.4
20260501224552 53 250 3.0 10.0 0.00 0.00 0.00 82 1020.4
20260501224036 54 270 4.0 10.0 0.00 0.00 0.00 82 1020.4
20260501223538 54 279 4.0 10.0 0.00 0.00 0.00 83 1020.3
20260501223050 54 282 4.0 8.0 0.00 0.00 0.00 84 1020.3
20260501222537 54 288 3.0 10.0 0.00 0.00 0.00 84 1020.2
20260501222037 54 281 3.0 10.0 0.00 0.00 0.00 85 1020.3
20260501221607 54 229 3.0 7.0 0.00 0.00 0.00 85 1020.3
20260501221040 54 274 2.0 7.0 0.00 0.00 0.00 86 1020.3
20260501220536 54 243 1.0 8.0 0.00 0.00 0.00 86 1020.3
20260501220053 54 261 2.0 10.0 0.00 0.00 0.00 86 1020.2
20260501215538 54 268 3.0 10.0 0.00 0.00 0.00 86 1020.3
20260501215036 54 182 5.0 13.0 0.00 0.00 0.00 86 1020.2
20260501214547 54 269 3.0 13.0 0.00 0.00 0.00 86 1020.3
20260501214037 54 216 4.0 11.0 0.00 0.00 0.00 86 1020.2
20260501213536 54 280 3.0 12.0 0.00 0.00 0.00 86 1020.3
20260501213049 54 284 4.0 12.0 0.00 0.00 0.00 86 1020.2
20260501212537 54 296 4.0 10.0 0.00 0.00 0.00 86 1020.3
20260501212037 54 288 6.0 12.0 0.00 0.00 0.00 86 1020.2
20260501211549 54 298 3.0 12.0 0.00 0.00 0.00 86 1020.3
20260501211037 55 289 5.0 12.0 0.00 0.00 0.00 86 1020.2
20260501210536 55 286 2.0 10.0 0.00 0.00 0.00 86 1020.3
20260501210045 55 281 4.0 10.0 0.00 0.00 0.00 86 1020.3
20260501205537 55 283 3.0 9.0 0.00 0.00 0.00 86 1020.2
20260501205037 55 296 2.0 9.0 0.00 0.00 0.00 86 1020.3
20260501204542 55 272 4.0 9.0 0.00 0.00 0.00 86 1020.3
20260501204039 55 253 3.0 7.0 0.00 0.00 0.00 86 1020.3
20260501203541 55 295 2.0 7.0 0.00 0.00 0.00 86 1020.3
20260501203046 55 288 1.0 7.0 0.00 0.00 0.00 86 1020.4
20260501202536 55 302 2.0 7.0 0.00 0.00 0.00 86 1020.5
20260501202039 55 281 2.0 7.0 0.00 0.00 0.00 85 1020.4
20260501201546 55 296 2.0 7.0 0.00 0.00 0.00 85 1020.4
20260501201040 55 285 1.0 6.0 0.00 0.00 0.00 84 1020.3
20260501200536 55 292 3.0 6.0 0.00 0.00 0.00 84 1020.3
20260501200048 55 306 2.0 6.0 0.00 0.00 0.00 84 1020.3
20260501195536 56 317 3.0 6.0 0.00 0.00 0.00 83 1020.3
20260501195037 56 0 3.0 8.0 0.00 0.00 0.00 83 1020.3
20260501194550 56 309 2.0 9.0 0.00 0.00 0.00 83 1020.4
20260501194037 56 309 2.0 9.0 0.00 0.00 0.00 83 1020.3
20260501193537 56 0 5.0 9.0 0.00 0.00 0.00 83 1020.4
20260501193047 56 302 2.0 9.0 0.00 0.00 0.00 82 1020.3
20260501192537 56 296 3.0 9.0 0.00 0.00 0.00 82 1020.3
20260501192037 57 321 2.0 10.0 0.00 0.00 0.00 82 1020.3
20260501191550 57 294 5.0 13.0 0.00 0.00 0.00 81 1020.2
20260501191038 57 281 2.0 13.0 0.00 0.00 0.00 81 1020.3
20260501190535 57 275 6.0 11.0 0.00 0.00 0.00 81 1020.3
20260501190057 58 281 5.0 10.0 0.00 0.00 0.00 80 1020.3
20260501185537 58 278 3.0 11.0 0.00 0.00 0.00 80 1020.2
20260501185041 58 303 4.0 11.0 0.00 0.00 0.00 80 1020.1
20260501184546 58 280 4.0 11.0 0.00 0.00 0.00 79 1020.1
20260501184037 59 252 6.0 11.0 0.00 0.00 0.00 79 1020.1
20260501183538 59 240 3.0 10.0 0.00 0.00 0.00 78 1020.1
20260501183054 59 233 2.0 10.0 0.00 0.00 0.00 78 1020.1
20260501182536 59 248 2.0 10.0 0.00 0.00 0.00 77 1020.0
20260501182038 60 262 2.0 10.0 0.00 0.00 0.00 77 1020.0
20260501181553 60 227 1.0 8.0 0.00 0.00 0.00 76 1019.9
20260501181038 60 250 1.0 8.0 0.00 0.00 0.00 76 1019.8
20260501180537 60 263 1.0 11.0 0.00 0.00 0.00 76 1019.8
20260501180054 61 259 3.0 11.0 0.00 0.00 0.00 75 1019.7
20260501175538 61 328 4.0 10.0 0.00 0.00 0.00 74 1019.7
20260501175037 61 313 4.0 10.0 0.00 0.00 0.00 74 1019.7
20260501174551 61 293 2.0 10.0 0.00 0.00 0.00 74 1019.8
20260501174037 62 237 0.0 8.0 0.00 0.00 0.00 73 1019.8
20260501173537 62 0 1.0 10.0 0.00 0.00 0.00 72 1019.7
20260501173046 62 0 1.0 11.0 0.00 0.00 0.00 71 1019.7
20260501172538 62 254 3.0 11.0 0.00 0.00 0.00 70 1019.7
20260501172036 63 288 3.0 11.0 0.00 0.00 0.00 69 1019.6
20260501171555 63 274 2.0 13.0 0.00 0.00 0.00 68 1019.6
20260501171038 63 275 4.0 13.0 0.00 0.00 0.00 67 1019.7
20260501170539 64 273 3.0 14.0 0.00 0.00 0.00 67 1019.6
20260501170050 64 265 5.0 14.0 0.00 0.00 0.00 67 1019.6
20260501165538 64 243 6.0 18.0 0.00 0.00 0.00 65 1019.7
20260501165039 64 163 8.0 18.0 0.00 0.00 0.00 65 1019.6
20260501164547 65 269 8.0 16.0 0.00 0.00 0.00 64 1019.7
20260501164037 65 236 7.0 16.0 0.00 0.00 0.00 64 1019.7
20260501163538 66 273 8.0 15.0 0.00 0.00 0.00 64 1019.6
20260501163048 66 301 7.0 17.0 0.00 0.00 0.00 64 1019.6
20260501162537 66 219 9.0 17.0 0.00 0.00 0.00 64 1019.6
20260501162036 66 146 5.0 12.0 0.00 0.00 0.00 64 1019.5
20260501161549 67 215 3.0 13.0 0.00 0.00 0.00 63 1019.6